• In Hungary
  • List of Countries
  • For 7 days
  • Water Temperature
  • Satellite Maps
  • Weather Map
  • News
  • Weather Widgets
  • user-avatar
    Login

    Hourly Weather Batina

    Today, 21 November, Tuesday

    Time Temperature Precipitation Wind Pressure Humidity
    00:00 +8°C° 0 mm 1 mps 674 mmHg 38%
    01:00 +8°C° 0 mm 1 mps 674 mmHg 39%
    02:00 +7°C° 0 mm 1 mps 673 mmHg 40%
    03:00 +7°C° 0 mm 1 mps 673 mmHg 41%
    04:00 +7°C° 0 mm 1 mps 673 mmHg 41%
    05:00 +6°C° 0 mm 1 mps 673 mmHg 41%
    06:00 +6°C° 0 mm 1 mps 673 mmHg 40%
    07:00 +8°C° 0 mm 1 mps 674 mmHg 35%
    08:00 +11°C° 0 mm 1 mps 675 mmHg 30%
    09:00 +13°C° 0 mm 1 mps 675 mmHg 25%
    10:00 +14°C° 0 mm 1 mps 675 mmHg 23%
    11:00 +15°C° 0 mm 1 mps 675 mmHg 22%
    12:00 +16°C° 0 mm 2 mps 675 mmHg 20%
    13:00 +16°C° 0 mm 2 mps 675 mmHg 21%
    14:00 +16°C° 0 mm 2 mps 675 mmHg 21%
    15:00 +16°C° 0 mm 2 mps 674 mmHg 22%
    16:00 +14°C° 0 mm 1 mps 674 mmHg 27%
    17:00 +12°C° 0 mm 1 mps 674 mmHg 33%
    18:00 +9°C° 0 mm 0 mps 673 mmHg 38%
    19:00 +9°C° 0 mm 0 mps 673 mmHg 39%
    20:00 +8°C° 0 mm 0 mps 673 mmHg 39%
    21:00 +8°C° 0 mm 0 mps 673 mmHg 39%
    22:00 +9°C° 0 mm 1 mps 673 mmHg 39%
    23:00 +9°C° 0 mm 1 mps 673 mmHg 39%

    Tomorrow, 22 November, Wednesday

    Time Temperature Precipitation Wind Pressure Humidity
    00:00 +8°C° 0 mm 1 mps 673 mmHg 39%
    01:00 +8°C° 0 mm 1 mps 672 mmHg 41%
    02:00 +8°C° 0 mm 1 mps 672 mmHg 42%
    03:00 +7°C° 0 mm 1 mps 671 mmHg 44%
    04:00 +7°C° 0 mm 1 mps 671 mmHg 44%
    05:00 +7°C° 0 mm 1 mps 671 mmHg 44%
    06:00 +6°C° 0 mm 2 mps 671 mmHg 44%
    07:00 +8°C° 0 mm 2 mps 672 mmHg 38%
    08:00 +10°C° 0 mm 2 mps 673 mmHg 33%
    09:00 +13°C° 0 mm 2 mps 673 mmHg 27%
    10:00 +14°C° 0 mm 2 mps 673 mmHg 25%
    11:00 +14°C° 0 mm 2 mps 673 mmHg 22%
    12:00 +15°C° 0 mm 2 mps 673 mmHg 20%
    13:00 +15°C° 0 mm 2 mps 673 mmHg 20%
    14:00 +15°C° 0 mm 2 mps 673 mmHg 21%
    15:00 +15°C° 0 mm 2 mps 672 mmHg 22%
    16:00 +14°C° 0 mm 2 mps 672 mmHg 25%
    17:00 +13°C° 0 mm 2 mps 672 mmHg 28%
    18:00 +12°C° 0 mm 2 mps 672 mmHg 31%
    19:00 +11°C° 0 mm 1 mps 672 mmHg 33%
    20:00 +10°C° 0 mm 1 mps 672 mmHg 35%
    21:00 +10°C° 0 mm 1 mps 672 mmHg 36%
    22:00 +9°C° 0 mm 1 mps 672 mmHg 37%
    23:00 +9°C° 0 mm 1 mps 671 mmHg 38%

    Day after tomorrow, 23 November, Thursday

    Time Temperature Precipitation Wind Pressure Humidity
    00:00 +9°C° 0 mm 1 mps 671 mmHg 38%
    01:00 +8°C° 0 mm 1 mps 671 mmHg 39%
    02:00 +8°C° 0 mm 1 mps 671 mmHg 39%
    03:00 +8°C° 0 mm 1 mps 671 mmHg 40%
    04:00 +8°C° 0 mm 1 mps 671 mmHg 40%
    05:00 +7°C° 0 mm 1 mps 671 mmHg 41%
    06:00 +7°C° 0 mm 1 mps 671 mmHg 41%
    07:00 +8°C° 0 mm 0 mps 672 mmHg 37%
    08:00 +10°C° 0 mm 0 mps 673 mmHg 32%
    09:00 +11°C° 0 mm 0 mps 673 mmHg 28%
    10:00 +13°C° 0 mm 1 mps 674 mmHg 27%
    11:00 +14°C° 0 mm 1 mps 674 mmHg 26%
    12:00 +15°C° 0 mm 1 mps 674 mmHg 25%
    13:00 +15°C° 0 mm 1 mps 674 mmHg 25%
    14:00 +15°C° 0 mm 1 mps 674 mmHg 25%
    15:00 +15°C° 0 mm 1 mps 673 mmHg 25%
    16:00 +14°C° 0 mm 1 mps 673 mmHg 29%
    17:00 +12°C° 0 mm 1 mps 673 mmHg 32%
    18:00 +11°C° 0 mm 1 mps 673 mmHg 35%
    19:00 +11°C° 0 mm 1 mps 673 mmHg 37%
    20:00 +10°C° 0 mm 1 mps 673 mmHg 38%
    21:00 +10°C° 0 mm 1 mps 674 mmHg 40%
    22:00 +9°C° 0 mm 1 mps 673 mmHg 42%
    23:00 +9°C° 0 mm 1 mps 673 mmHg 43%

    24 November, Friday

    Time Temperature Precipitation Wind Pressure Humidity
    00:00 +7°C° 0 mm 0 mps 673 mmHg 45%
    01:00 +7°C° 0 mm 0 mps 673 mmHg 46%
    02:00 +7°C° 0 mm 0 mps 672 mmHg 46%
    03:00 +6°C° 0 mm 0 mps 672 mmHg 47%
    04:00 +6°C° 0 mm 0 mps 672 mmHg 47%
    05:00 +6°C° 0 mm 0 mps 672 mmHg 48%
    06:00 +6°C° 0 mm 0 mps 672 mmHg 48%
    07:00 +8°C° 0 mm 0 mps 673 mmHg 42%
    08:00 +10°C° 0 mm 0 mps 674 mmHg 37%
    09:00 +13°C° 0 mm 1 mps 675 mmHg 31%
    10:00 +14°C° 0 mm 1 mps 675 mmHg 30%
    11:00 +15°C° 0 mm 1 mps 675 mmHg 30%
    12:00 +16°C° 0 mm 1 mps 675 mmHg 29%
    13:00 +16°C° 0 mm 1 mps 675 mmHg 29%
    14:00 +16°C° 0 mm 1 mps 675 mmHg 30%
    15:00 +16°C° 0 mm 1 mps 674 mmHg 30%
    16:00 +15°C° 0 mm 1 mps 674 mmHg 35%
    17:00 +13°C° 0 mm 1 mps 674 mmHg 40%
    18:00 +12°C° 0 mm 1 mps 674 mmHg 45%
    19:00 +11°C° 0 mm 1 mps 674 mmHg 46%
    20:00 +11°C° 0 mm 1 mps 674 mmHg 47%
    21:00 +10°C° 0 mm 1 mps 674 mmHg 48%
    22:00 +10°C° 0 mm 1 mps 674 mmHg 49%
    23:00 +9°C° 0 mm 2 mps 674 mmHg 50%

    25 November, Saturday

    Time Temperature Precipitation Wind Pressure Humidity
    00:00 +8°C° 0 mm 2 mps 674 mmHg 52%
    01:00 +8°C° 0 mm 2 mps 674 mmHg 54%
    02:00 +8°C° 0 mm 2 mps 674 mmHg 57%
    03:00 +8°C° 0 mm 2 mps 673 mmHg 59%
    04:00 +7°C° 0 mm 2 mps 673 mmHg 63%
    05:00 +7°C° 0 mm 2 mps 673 mmHg 66%
    06:00 +7°C° 0 mm 2 mps 673 mmHg 69%
    07:00 +9°C° 0 mm 2 mps 674 mmHg 64%
    08:00 +10°C° 0 mm 2 mps 675 mmHg 60%
    09:00 +13°C° 0 mm 2 mps 676 mmHg 55%
    10:00 +13°C° 0 mm 3 mps 676 mmHg 51%
    11:00 +14°C° 0 mm 3 mps 676 mmHg 47%
    12:00 +16°C° 0 mm 3 mps 676 mmHg 43%
    13:00 +16°C° 0 mm 3 mps 675 mmHg 43%
    14:00 +16°C° 0 mm 3 mps 675 mmHg 42%
    15:00 +16°C° 0 mm 3 mps 675 mmHg 42%
    16:00 +14°C° 0 mm 2 mps 675 mmHg 48%
    17:00 +13°C° 0 mm 2 mps 675 mmHg 54%
    18:00 +12°C° 0 mm 2 mps 674 mmHg 60%
    19:00 +10°C° 0 mm 2 mps 675 mmHg 62%
    20:00 +10°C° 0 mm 2 mps 675 mmHg 65%
    21:00 +9°C° 0 mm 2 mps 675 mmHg 67%
    22:00 +9°C° 0 mm 2 mps 675 mmHg 66%
    23:00 +8°C° 0 mm 2 mps 675 mmHg 66%

    26 November, Sunday

    Time Temperature Precipitation Wind Pressure Humidity
    00:00 +9°C° 0 mm 1 mps 675 mmHg 66%
    01:00 +9°C° 0 mm 1 mps 674 mmHg 65%
    02:00 +8°C° 0 mm 2 mps 674 mmHg 64%
    03:00 +7°C° 0 mm 2 mps 674 mmHg 63%
    04:00 +7°C° 0 mm 2 mps 674 mmHg 61%
    05:00 +7°C° 0 mm 2 mps 674 mmHg 60%
    06:00 +7°C° 0 mm 2 mps 675 mmHg 58%
    07:00 +9°C° 0 mm 2 mps 675 mmHg 53%
    08:00 +12°C° 0 mm 2 mps 676 mmHg 47%
    09:00 +13°C° 0 mm 1 mps 677 mmHg 42%
    10:00 +14°C° 0 mm 2 mps 677 mmHg 39%
    11:00 +15°C° 0 mm 2 mps 677 mmHg 37%
    12:00 +16°C° 0 mm 2 mps 677 mmHg 34%
    13:00 +16°C° 0 mm 2 mps 676 mmHg 34%
    14:00 +16°C° 0 mm 2 mps 676 mmHg 34%
    15:00 +16°C° 0 mm 2 mps 676 mmHg 33%
    16:00 +14°C° 0 mm 2 mps 676 mmHg 40%
    17:00 +13°C° 0 mm 1 mps 676 mmHg 46%
    18:00 +11°C° 0 mm 1 mps 675 mmHg 53%
    19:00 +10°C° 0 mm 1 mps 675 mmHg 53%
    20:00 +10°C° 0 mm 1 mps 675 mmHg 54%
    21:00 +10°C° 0 mm 1 mps 675 mmHg 54%
    22:00 +9°C° 0 mm 1 mps 675 mmHg 53%
    23:00 +9°C° 0 mm 1 mps 675 mmHg 53%
    Show more